Regional Weather Roundup
Issued by NWS

Home | Current Version | Previous Version | Graphics & Text | Print | Product List | Glossary Off
Versions: 1 2 3 4 5 6 7 8 9 10 11 12 13 14 15 16 17 18 19 20 21 22 23 24 25 26 27 28 29 30 31 32 33 34 35 36 37 38 39 40 41 42 43 44 45 46 47 48 49

000
ASUS43 KDMX 280007
RWRIA

WEATHER ROUNDUP FOR IOWA
NATIONAL WEATHER SERVICE DES MOINES IA
700 PM CDT THU AUG 27 2015

NOTE: "FAIR" INDICATES FEW OR NO CLOUDS BELOW 12,000 FEET WITH NO
SIGNIFICANT WEATHER AND/OR OBSTRUCTIONS TO VISIBILITY.

* - THESE STATIONS ARE NOT NWS STATIONS...THUS NOT UNDER NWS
QUALITY CONTROL.  THEY ALSO DO NOT REPORT WEATHER SUCH
AS PRECIPITATION OR FOG.

IAZ001>003-012>014-020>022-031>034-043>046-280100-
   NORTHWEST IOWA

CITY           SKY/WX    TMP DP  RH WIND       PRES   REMARKS
CARROLL *      SUNNY     72  66  83 E9        29.98R
CHEROKEE *     LGT RAIN  72  67  84 E8        29.98R
DENISON *      SUNNY     75  70  83 SE6       29.92F
LE MARS *      CLOUDY    77  70  78 VRB6      29.98R
ORANGE CITY *  CLOUDY    73  66  78 NE3       30.00R
SHELDON *      CLOUDY    70  64  83 E10       30.02R
SIOUX CITY     CLOUDY    77  67  71 NE9       29.93R THUNDER
6HR MIN TEMP:  73; 6HR MAX TEMP:  81; 6HR PCP: TRACE;

SPENCER        HAZE      69  60  73 NE10      30.02R VSB 1/4
6HR MIN TEMP:  68; 6HR MAX TEMP:  77;

STORM LAKE *   SUNNY     70  66  88 E9        29.99S
$$

IAZ055>058-069>071-079>083-090>094-280100-
   SOUTHWEST IOWA

CITY           SKY/WX    TMP DP  RH WIND       PRES   REMARKS
ATLANTIC *     SUNNY     75  66  73 SE8G15    29.96R
AUDUBON *      SUNNY     73  66  78 E10       29.98S
CLARINDA *     SUNNY     75  68  78 VRB6G13   29.96S
COUNCIL BLFS * SUNNY     77  68  73 S16       29.92S
CRESTON *      SUNNY     72  64  78 SE10G17   29.99F
HARLAN  *      SUNNY     75  75 100 SE14      29.97S
LAMONI         MOCLDY    72  62  71 SE7       29.99F
6HR MIN TEMP:  65; 6HR MAX TEMP:  75; 6HR PCP: TRACE;

RED OAK *      SUNNY     75  68  78 SE9G16    29.94S
SHENANDOAH *   SUNNY     77  68  73 CALM      29.93S
$$

IAZ047>049-059>061-072>074-084-280100-
   CENTRAL IOWA

CITY           SKY/WX    TMP DP  RH WIND       PRES   REMARKS
AMES           MOCLDY    70  62  76 SE7       30.02F
6HR MIN TEMP:  63; 6HR MAX TEMP:  72; 6HR PCP: TRACE;

ANKENY *       CLEAR     72  63  73 SE8       30.01S
CHARITON *     CLEAR     72  63  73 SE8G14    30.02F
DES MOINES     MOCLDY    73  61  65 SE12      30.00F
6HR MIN TEMP:  66; 6HR MAX TEMP:  76; 6HR PCP: TRACE;

GRINNELL*      CLOUDY    70  61  73 E5        30.06F
KNOXVILLE *    CLEAR     72  61  68 SE9       30.01F
MARSHALLTOWN   CLOUDY    69  62  78 SE10      30.04F
6HR MIN TEMP:  68; 6HR MAX TEMP:  71; 6HR PCP: TRACE;

PELLA *        MOCLDY    71  64  79 SE6       30.04F
PERRY *          N/A     72  64  78 E8        30.00R
$$

IAZ004>006-015-016-023>025-035-036-280100-
   NORTH CENTRAL IOWA

CITY           SKY/WX    TMP DP  RH WIND       PRES   REMARKS
ALGONA *       SUNNY     68  61  77 E9        30.02F
CLARION *      CLEAR     68  61  77 E13       30.02F
ESTHERVILLE    MOSUNNY   67  61  81 CALM      30.03S
6HR MIN TEMP:  65; 6HR MAX TEMP:  70;

FORT DODGE *   PTSUNNY   70  61  73 SE10      30.02S
MASON CITY     CLOUDY    67  60  78 S10       30.04F
6HR MIN TEMP:  67; 6HR MAX TEMP:  71; 6HR PCP: TRACE;

FOREST CITY *  CLEAR     66  59  77 E3        30.04F
IOWA FALLS *     N/A     70  63  78 E7        30.05F
$$

IAZ007>011-017>019-026>030-037>042-050>054-066-280100-
   NORTHEAST IOWA

CITY           SKY/WX    TMP DP  RH WIND       PRES   REMARKS
CEDAR RAPIDS   CLOUDY    70  63  78 N3        30.11R
6HR MIN TEMP:  69; 6HR MAX TEMP:  73;

CHARLES CITY * PTCLDY    68  63  83 CALM      30.07F
CLINTON *      MOCLDY    70  59  68 SE8       30.09F
DECORAH *      CLEAR     68  59  73 SE6       30.05F
DUBUQUE        CLOUDY    68  60  75 W3        30.12R
6HR MIN TEMP:  68; 6HR MAX TEMP:  73;

MONTICELLO *   MOCLDY    70  61  73 CALM      30.12R
OELWEIN *        N/A     68  61  77 CALM      30.10F
WATERLOO       CLOUDY    69  59  70 SE7       30.05F
6HR MIN TEMP:  69; 6HR MAX TEMP:  75;

$$

IAZ064-065-067-068-078-280100-
   EAST CENTRAL IOWA

CITY           SKY/WX    TMP DP  RH WIND       PRES   REMARKS
DAVENPORT      PTCLDY    69  58  67 SE8       30.06F
6HR MIN TEMP:  69; 6HR MAX TEMP:  74;

IOWA CITY      CLOUDY    71  60  68 E5        30.09R
6HR MIN TEMP:  71; 6HR MAX TEMP:  74;

MT. PLEASANT * CLOUDY    74  58  57 SE5       30.09R
MUSCATINE *    PTCLDY    72  61  68 W5        30.10R
QUAD CITIES    PTCLDY    70  60  70 SE7       30.06F
6HR MIN TEMP:  70; 6HR MAX TEMP:  75;

$$

IAZ062-063-075>077-085>089-095>099-280100-
   SOUTHEAST IOWA

CITY           SKY/WX    TMP DP  RH WIND       PRES   REMARKS
BURLINGTON     MOCLDY    71  61  70 S7        30.07F
6HR MIN TEMP:  70; 6HR MAX TEMP:  74;

FAIRFIELD *    PTCLDY    70  61  73 E6        30.08R
FORT MADISON * CLEAR     70  61  73 S5        30.09R
KEOKUK *       CLEAR     72  59  64 SE5       30.08S
OSKALOOSA *      N/A     71  61  71 SE6       30.05F
CENTERVILLE *  CLEAR     68  63  83 E7        30.05F
OTTUMWA        PTCLDY    72  61  68 SE9       30.05R
6HR MIN TEMP:  71; 6HR MAX TEMP:  75;

WASHINGTON *     N/A    N/A N/A N/A MISG        N/A
$$

ABBREVIATIONS USED IN REMARKS
   TC - TEMPERATURES IN CELSIUS
  WCI - WIND CHILL INDEX
   HX - HEAT INDEX
  VSB - VISIBILITY
$$



USA.gov is the U.S. government's official web portal to all federal, state and local government web resources and services.